Location: ???? ????
(41.4149°N, 22.8816°E)
Time: 14:30:30
(UTC+00:00)

Cosmos 2369 - Pass Details

Date: 14 July 2020
Orbit: 839 x 857 km, 71.0° (Epoch: 04 August)

Event Time Altitude Azimuth Distance (km) Brightness Sun altitude
Rises 01:42:17 0° 326° (NNW) 3,434 7.0 -13.4°
Reaches altitude 10° 01:44:58 10° 317° (NW) 2,495 6.2 -13.1°
Maximum altitude 01:49:59 32° 256° (WSW) 1,425 4.4 -12.4°
Enters shadow 01:54:54 10° 195° (SSW) 2,454 5.6 -11.7°
